Tracking 35274 objects as of 10-Sep-2026
HD Live streaming from Space Station
objects crossing your sky now

COSMOS 1408 DEB


COSMOS 1408 DEB is no longer on orbit


NORAD ID: 52814
Int'l Code: 1982-092CAB
Launch date: September 16, 1982
Source: Commonwealth of Independent States (former USSR) (CIS)
Launch site: PLESETSK MISSILE AND SPACE COMPLEX (PKMTR)
Decay date: 2023-12-28

Note: This is SATELLITE DEBRIS
Your satellite tracking list
Your tracking list is empty




NASA's NSSDC Master Catalog

Two Line Element Set (TLE):
1 52814U 82092CAB 23324.08178534  .00099769  00000-0  90098-3 0  9990
2 52814  82.4559  94.2917 0033784 281.2466  78.4998 15.67032460 85621
Source of the keplerian elements: AFSPC